Year,Month,Day,Hour,Minute,Value (Times are PST for temperature in C)
2014,05,27,00,00,9.10
2014,05,27,00,01,9.10
2014,05,27,00,02,9.10
2014,05,27,00,03,9.10
2014,05,27,00,04,9.00
2014,05,27,00,05,9.00
2014,05,27,00,06,9.00
2014,05,27,00,07,8.90
2014,05,27,00,08,8.90
2014,05,27,00,09,8.90
2014,05,27,00,10,8.80
2014,05,27,00,11,8.80
2014,05,27,00,12,8.80
2014,05,27,00,13,8.70
2014,05,27,00,14,8.70
2014,05,27,00,15,8.70
2014,05,27,00,16,8.70
2014,05,27,00,17,8.60
2014,05,27,00,18,8.60
2014,05,27,00,19,8.60
2014,05,27,00,20,8.60
2014,05,27,00,21,8.60
2014,05,27,00,22,8.60
2014,05,27,00,23,8.60
2014,05,27,00,24,8.60
2014,05,27,00,25,8.50
2014,05,27,00,26,8.50
2014,05,27,00,27,8.50
2014,05,27,00,28,8.50
2014,05,27,00,29,8.50
2014,05,27,00,30,8.50
2014,05,27,00,31,8.50
2014,05,27,00,32,8.50
2014,05,27,00,33,8.50
2014,05,27,00,34,8.50
2014,05,27,00,35,8.40
2014,05,27,00,36,8.40
2014,05,27,00,37,8.40
2014,05,27,00,38,8.40
2014,05,27,00,39,8.40
2014,05,27,00,40,8.40
2014,05,27,00,41,8.40
2014,05,27,00,42,8.40
2014,05,27,00,43,8.40
2014,05,27,00,44,8.50
2014,05,27,00,45,8.50
2014,05,27,00,46,8.50
2014,05,27,00,47,8.50
2014,05,27,00,48,8.50
2014,05,27,00,49,8.50
2014,05,27,00,50,8.50
2014,05,27,00,51,8.50
2014,05,27,00,52,8.40
2014,05,27,00,53,8.50
2014,05,27,00,54,8.50
2014,05,27,00,55,8.40
2014,05,27,00,56,8.50
2014,05,27,00,57,8.50
2014,05,27,00,58,8.50
2014,05,27,00,59,8.50
2014,05,27,01,00,8.50
2014,05,27,01,01,8.50
2014,05,27,01,02,8.40
2014,05,27,01,03,8.40
2014,05,27,01,04,8.40
2014,05,27,01,05,8.40
2014,05,27,01,06,8.40
2014,05,27,01,07,8.40
2014,05,27,01,08,8.40
2014,05,27,01,09,8.40
2014,05,27,01,10,8.40
2014,05,27,01,11,8.40
2014,05,27,01,12,8.40
2014,05,27,01,13,8.40
2014,05,27,01,14,8.40
2014,05,27,01,15,8.40
2014,05,27,01,16,8.40
2014,05,27,01,17,8.40
2014,05,27,01,18,8.40
2014,05,27,01,19,8.40
2014,05,27,01,20,8.40
2014,05,27,01,21,8.40
2014,05,27,01,22,8.40
2014,05,27,01,23,8.40
2014,05,27,01,24,8.40
2014,05,27,01,25,8.40
2014,05,27,01,26,8.40
2014,05,27,01,27,8.40
2014,05,27,01,28,8.50
2014,05,27,01,29,8.50
2014,05,27,01,30,8.50
2014,05,27,01,31,8.50
2014,05,27,01,32,8.50
2014,05,27,01,33,8.50
2014,05,27,01,34,8.50
2014,05,27,01,35,8.60
2014,05,27,01,36,8.60
2014,05,27,01,37,8.50
2014,05,27,01,38,8.60
2014,05,27,01,39,8.50
2014,05,27,01,40,8.50
2014,05,27,01,41,8.50
2014,05,27,01,42,8.50
2014,05,27,01,43,8.50
2014,05,27,01,44,8.50
2014,05,27,01,45,8.50
2014,05,27,01,46,8.40
2014,05,27,01,47,8.50
2014,05,27,01,48,8.40
2014,05,27,01,49,8.40
2014,05,27,01,50,8.40
2014,05,27,01,51,8.40
2014,05,27,01,52,8.40
2014,05,27,01,53,8.40
2014,05,27,01,54,8.40
2014,05,27,01,55,8.40
2014,05,27,01,56,8.40
2014,05,27,01,57,8.40
2014,05,27,01,58,8.40
2014,05,27,01,59,8.40
2014,05,27,02,00,8.30
2014,05,27,02,01,8.30
2014,05,27,02,02,8.30
2014,05,27,02,03,8.30
2014,05,27,02,04,8.30
2014,05,27,02,05,8.30
2014,05,27,02,06,8.30
2014,05,27,02,07,8.30
2014,05,27,02,08,8.30
2014,05,27,02,09,8.30
2014,05,27,02,10,8.30
2014,05,27,02,11,8.30
2014,05,27,02,12,8.30
2014,05,27,02,13,8.30
2014,05,27,02,14,8.20
2014,05,27,02,15,8.30
2014,05,27,02,16,8.30
2014,05,27,02,17,8.20
2014,05,27,02,18,8.30
2014,05,27,02,19,8.30
2014,05,27,02,20,8.20
2014,05,27,02,21,8.20
2014,05,27,02,22,8.20
2014,05,27,02,23,8.20
2014,05,27,02,24,8.20
2014,05,27,02,25,8.20
2014,05,27,02,26,8.20
2014,05,27,02,27,8.20
2014,05,27,02,28,8.20
2014,05,27,02,29,8.20
2014,05,27,02,30,8.20
2014,05,27,02,31,8.20
2014,05,27,02,32,8.20
2014,05,27,02,33,8.20
2014,05,27,02,34,8.20
2014,05,27,02,35,8.20
2014,05,27,02,36,8.20
2014,05,27,02,37,8.20
2014,05,27,02,38,8.20
2014,05,27,02,39,8.20
2014,05,27,02,40,8.20
2014,05,27,02,41,8.30
2014,05,27,02,42,8.30
2014,05,27,02,43,8.30
2014,05,27,02,44,8.30
2014,05,27,02,45,8.30
2014,05,27,02,46,8.30
2014,05,27,02,47,8.30
2014,05,27,02,48,8.30
2014,05,27,02,49,8.30
2014,05,27,02,50,8.30
2014,05,27,02,51,8.30
2014,05,27,02,52,8.30
2014,05,27,02,53,8.20
2014,05,27,02,54,8.20
2014,05,27,02,55,8.20
2014,05,27,02,56,8.20
2014,05,27,02,57,8.20
2014,05,27,02,58,8.20
2014,05,27,02,59,8.20
2014,05,27,03,00,8.20
2014,05,27,03,01,8.20
2014,05,27,03,02,8.20
2014,05,27,03,03,8.10
2014,05,27,03,06,8.10
2014,05,27,03,07,8.10
2014,05,27,03,08,8.10
2014,05,27,03,09,8.10
2014,05,27,03,10,8.00
2014,05,27,03,11,8.00
2014,05,27,03,12,8.00
2014,05,27,03,13,8.00
2014,05,27,03,14,8.00
2014,05,27,03,15,8.00
2014,05,27,03,16,8.00
2014,05,27,03,17,7.90
2014,05,27,03,18,7.90
2014,05,27,03,19,7.90
2014,05,27,03,20,7.90
2014,05,27,03,21,7.90
2014,05,27,03,22,7.90
2014,05,27,03,23,7.90
2014,05,27,03,24,7.80
2014,05,27,03,25,7.80
2014,05,27,03,26,7.80
2014,05,27,03,27,7.80
2014,05,27,03,28,7.80
2014,05,27,03,29,7.80
2014,05,27,03,30,7.70
2014,05,27,03,31,7.70
2014,05,27,03,32,7.70
2014,05,27,03,33,7.70
2014,05,27,03,34,7.70
2014,05,27,03,35,7.70
2014,05,27,03,36,7.70
2014,05,27,03,37,7.70
2014,05,27,03,38,7.70
2014,05,27,03,39,7.60
2014,05,27,03,40,7.60
2014,05,27,03,41,7.60
2014,05,27,03,42,7.60
2014,05,27,03,43,7.60
2014,05,27,03,44,7.60
2014,05,27,03,45,7.60
2014,05,27,03,46,7.60
2014,05,27,03,47,7.60
2014,05,27,03,48,7.60
2014,05,27,03,49,7.60
2014,05,27,03,50,7.70
2014,05,27,03,51,7.70
2014,05,27,03,52,7.60
2014,05,27,03,53,7.60
2014,05,27,03,54,7.70
2014,05,27,03,55,7.70
2014,05,27,03,56,7.70
2014,05,27,03,57,7.70
2014,05,27,03,58,7.70
2014,05,27,03,59,7.70
2014,05,27,04,00,7.70
2014,05,27,04,01,7.70
2014,05,27,04,02,7.70
2014,05,27,04,03,7.70
2014,05,27,04,04,7.70
2014,05,27,04,05,7.70
2014,05,27,04,06,7.70
2014,05,27,04,07,7.70
2014,05,27,04,08,7.70
2014,05,27,04,09,7.70
2014,05,27,04,10,7.70
2014,05,27,04,11,7.70
2014,05,27,04,12,7.70
2014,05,27,04,13,7.70
2014,05,27,04,14,7.70
2014,05,27,04,15,7.70
2014,05,27,04,16,7.70
2014,05,27,04,17,7.70
2014,05,27,04,18,7.70
2014,05,27,04,19,7.70
2014,05,27,04,20,7.70
2014,05,27,04,21,7.70
2014,05,27,04,22,7.70
2014,05,27,04,23,7.70
2014,05,27,04,24,7.70
2014,05,27,04,25,7.60
2014,05,27,04,26,7.60
2014,05,27,04,27,7.60
2014,05,27,04,28,7.60
2014,05,27,04,29,7.60
2014,05,27,04,30,7.60
2014,05,27,04,31,7.60
2014,05,27,04,32,7.60
2014,05,27,04,33,7.60
2014,05,27,04,34,7.60
2014,05,27,04,35,7.60
2014,05,27,04,36,7.60
2014,05,27,04,37,7.60
2014,05,27,04,38,7.60
2014,05,27,04,39,7.60
2014,05,27,04,40,7.60
2014,05,27,04,41,7.60
2014,05,27,04,42,7.60
2014,05,27,04,43,7.60
2014,05,27,04,44,7.60
2014,05,27,04,45,7.60
2014,05,27,04,46,7.60
2014,05,27,04,47,7.60
2014,05,27,04,48,7.60
2014,05,27,04,49,7.60
2014,05,27,04,50,7.60
2014,05,27,04,51,7.50
2014,05,27,04,52,7.50
2014,05,27,04,53,7.50
2014,05,27,04,54,7.50
2014,05,27,04,55,7.50
2014,05,27,04,56,7.40
2014,05,27,04,57,7.40
2014,05,27,04,58,7.40
2014,05,27,04,59,7.40
2014,05,27,05,00,7.40
2014,05,27,05,01,7.40
2014,05,27,05,02,7.30
2014,05,27,05,03,7.30
2014,05,27,05,04,7.30
2014,05,27,05,05,7.30
2014,05,27,05,06,7.30
2014,05,27,05,07,7.30
2014,05,27,05,08,7.30
2014,05,27,05,09,7.30
2014,05,27,05,10,7.20
2014,05,27,05,11,7.20
2014,05,27,05,12,7.20
2014,05,27,05,13,7.20
2014,05,27,05,14,7.10
2014,05,27,05,15,7.10
2014,05,27,05,16,7.10
2014,05,27,05,17,7.10
2014,05,27,05,18,7.10
2014,05,27,05,19,7.10
2014,05,27,05,20,7.10
2014,05,27,05,21,7.00
2014,05,27,05,22,7.00
2014,05,27,05,23,7.00
2014,05,27,05,24,7.00
2014,05,27,05,25,7.00
2014,05,27,05,26,7.00
2014,05,27,05,27,7.00
2014,05,27,05,28,6.90
2014,05,27,05,29,6.90
2014,05,27,05,30,6.90
2014,05,27,05,31,6.90
2014,05,27,05,32,6.90
2014,05,27,05,33,6.90
2014,05,27,05,34,6.90
2014,05,27,05,35,6.90
2014,05,27,05,36,6.90
2014,05,27,05,37,6.80
2014,05,27,05,38,6.80
2014,05,27,05,39,6.80
2014,05,27,05,40,6.80
2014,05,27,05,41,6.80
2014,05,27,05,42,6.80
2014,05,27,05,43,6.80
2014,05,27,05,44,6.80
2014,05,27,05,45,6.80
2014,05,27,05,46,6.80
2014,05,27,05,47,6.80
2014,05,27,05,48,6.80
2014,05,27,05,49,6.80
2014,05,27,05,50,6.80
2014,05,27,05,51,6.70
2014,05,27,05,52,6.70
2014,05,27,05,53,6.70
2014,05,27,05,54,6.70
2014,05,27,05,55,6.70
2014,05,27,05,56,6.70
2014,05,27,05,57,6.70
2014,05,27,05,58,6.80
2014,05,27,05,59,6.80
2014,05,27,06,00,6.80
2014,05,27,06,01,6.80
2014,05,27,06,02,6.80
2014,05,27,06,03,6.80
2014,05,27,06,04,6.80
2014,05,27,06,05,6.80
2014,05,27,06,06,6.80
2014,05,27,06,07,6.70
2014,05,27,06,08,6.70
2014,05,27,06,09,6.70
2014,05,27,06,10,6.70
2014,05,27,06,11,6.70
2014,05,27,06,12,6.70
2014,05,27,06,13,6.70
2014,05,27,06,14,6.70
2014,05,27,06,15,6.70
2014,05,27,06,16,6.70
2014,05,27,06,17,6.70
2014,05,27,06,18,6.70
2014,05,27,06,19,6.70
2014,05,27,06,20,6.70
2014,05,27,06,21,6.80
2014,05,27,06,22,6.80
2014,05,27,06,23,6.80
2014,05,27,06,24,6.80
2014,05,27,06,25,6.80
2014,05,27,06,26,6.80
2014,05,27,06,27,6.80
2014,05,27,06,28,6.80
2014,05,27,06,29,6.80
2014,05,27,06,30,6.80
2014,05,27,06,31,6.80
2014,05,27,06,32,6.80
2014,05,27,06,33,6.80
2014,05,27,06,34,6.80
2014,05,27,06,35,6.80
2014,05,27,06,36,6.80
2014,05,27,06,37,6.80
2014,05,27,06,38,6.80
2014,05,27,06,39,6.80
2014,05,27,06,40,6.80
2014,05,27,06,41,6.80
2014,05,27,06,42,6.80
2014,05,27,06,43,6.80
2014,05,27,06,44,6.90
2014,05,27,06,45,6.90
2014,05,27,06,46,6.90
2014,05,27,06,47,6.90
2014,05,27,06,48,6.90
2014,05,27,06,49,6.90
2014,05,27,06,50,6.90
2014,05,27,06,51,6.90
2014,05,27,06,52,6.90
2014,05,27,06,53,7.00
2014,05,27,06,54,7.00
2014,05,27,06,55,7.10
2014,05,27,06,56,7.10
2014,05,27,06,57,7.20
2014,05,27,06,58,7.20
2014,05,27,06,59,7.30
2014,05,27,07,00,7.30
2014,05,27,07,01,7.40
2014,05,27,07,02,7.50
2014,05,27,07,03,7.50
2014,05,27,07,04,7.60
2014,05,27,07,05,7.60
2014,05,27,07,06,7.70
2014,05,27,07,07,7.70
2014,05,27,07,08,7.80
2014,05,27,07,09,7.80
2014,05,27,07,10,7.80
2014,05,27,07,11,7.90
2014,05,27,07,12,7.90
2014,05,27,07,13,8.00
2014,05,27,07,14,8.00
2014,05,27,07,15,8.10
2014,05,27,07,16,8.10
2014,05,27,07,17,8.20
2014,05,27,07,18,8.20
2014,05,27,07,19,8.20
2014,05,27,07,20,8.30
2014,05,27,07,21,8.30
2014,05,27,07,22,8.30
2014,05,27,07,23,8.40
2014,05,27,07,24,8.40
2014,05,27,07,25,8.50
2014,05,27,07,26,8.60
2014,05,27,07,27,8.60
2014,05,27,07,28,8.60
2014,05,27,07,29,8.60
2014,05,27,07,30,8.70
2014,05,27,07,31,8.70
2014,05,27,07,32,8.80
2014,05,27,07,33,8.80
2014,05,27,07,34,8.90
2014,05,27,07,35,8.90
2014,05,27,07,36,9.00
2014,05,27,07,37,9.00
2014,05,27,07,38,9.00
2014,05,27,07,39,9.00
2014,05,27,07,40,9.00
2014,05,27,07,41,9.10
2014,05,27,07,42,9.10
2014,05,27,07,43,9.10
2014,05,27,07,44,9.10
2014,05,27,07,45,9.10
2014,05,27,07,46,9.10
2014,05,27,07,47,9.00
2014,05,27,07,48,9.00
2014,05,27,07,49,8.90
2014,05,27,07,50,8.90
2014,05,27,07,51,8.80
2014,05,27,07,52,8.80
2014,05,27,07,53,8.80
2014,05,27,07,54,8.70
2014,05,27,07,55,8.70
2014,05,27,07,56,8.60
2014,05,27,07,57,8.60
2014,05,27,07,58,8.50
2014,05,27,07,59,8.40
2014,05,27,08,00,8.40
2014,05,27,08,01,8.30
2014,05,27,08,02,8.30
2014,05,27,08,03,8.30
2014,05,27,08,04,8.20
2014,05,27,08,05,8.20
2014,05,27,08,06,8.20
2014,05,27,08,07,8.20
2014,05,27,08,08,8.20
2014,05,27,08,09,8.10
2014,05,27,08,10,8.10
2014,05,27,08,11,8.10
2014,05,27,08,12,8.20
2014,05,27,08,13,8.20
2014,05,27,08,14,8.20
2014,05,27,08,15,8.20
2014,05,27,08,16,8.20
2014,05,27,08,17,8.30
2014,05,27,08,18,8.30
2014,05,27,08,19,8.30
2014,05,27,08,20,8.30
2014,05,27,08,21,8.40
2014,05,27,08,22,8.40
2014,05,27,08,23,8.40
2014,05,27,08,24,8.50
2014,05,27,08,25,8.50
2014,05,27,08,26,8.50
2014,05,27,08,27,8.60
2014,05,27,08,28,8.60
2014,05,27,08,29,8.60
2014,05,27,08,30,8.70
2014,05,27,08,31,8.70
2014,05,27,08,32,8.70
2014,05,27,08,33,8.80
2014,05,27,08,34,8.80
2014,05,27,08,35,8.80
2014,05,27,08,36,8.80
2014,05,27,08,37,8.90
2014,05,27,08,38,8.90
2014,05,27,08,39,9.00
2014,05,27,08,40,9.00
2014,05,27,08,41,9.10
2014,05,27,08,42,9.10
2014,05,27,08,43,9.10
2014,05,27,08,44,9.20
2014,05,27,08,45,9.20
2014,05,27,08,46,9.20
2014,05,27,08,47,9.20
2014,05,27,08,48,9.30
2014,05,27,08,49,9.30
2014,05,27,08,50,9.40
2014,05,27,08,51,9.40
2014,05,27,08,52,9.40
2014,05,27,08,53,9.40
2014,05,27,08,54,9.50
2014,05,27,08,55,9.50
2014,05,27,08,56,9.60
2014,05,27,08,57,9.60
2014,05,27,08,58,9.60
2014,05,27,08,59,9.60
2014,05,27,09,00,9.70
2014,05,27,09,01,9.70
2014,05,27,09,02,9.80
2014,05,27,09,03,9.80
2014,05,27,09,04,9.80
2014,05,27,09,05,9.80
2014,05,27,09,06,9.80
2014,05,27,09,07,9.80
2014,05,27,09,08,9.80
2014,05,27,09,09,9.80
2014,05,27,09,10,9.90
2014,05,27,09,11,9.90
2014,05,27,09,12,9.90
2014,05,27,09,13,9.90
2014,05,27,09,14,9.90
2014,05,27,09,15,10.00
2014,05,27,09,16,10.00
2014,05,27,09,17,10.10
2014,05,27,09,18,10.10
2014,05,27,09,19,10.10
2014,05,27,09,20,10.20
2014,05,27,09,21,10.20
2014,05,27,09,22,10.20
2014,05,27,09,23,10.20
2014,05,27,09,24,10.30
2014,05,27,09,25,10.30
2014,05,27,09,26,10.30
2014,05,27,09,27,10.30
2014,05,27,09,28,10.30
2014,05,27,09,29,10.40
2014,05,27,09,30,10.40
2014,05,27,09,31,10.40
2014,05,27,09,32,10.40
2014,05,27,09,33,10.50
2014,05,27,09,34,10.40
2014,05,27,09,35,10.40
2014,05,27,09,36,10.50
2014,05,27,09,37,10.50
2014,05,27,09,38,10.50
2014,05,27,09,39,10.50
2014,05,27,09,40,10.60
2014,05,27,09,41,10.60
2014,05,27,09,42,10.60
2014,05,27,09,43,10.70
2014,05,27,09,44,10.70
2014,05,27,09,45,10.70
2014,05,27,09,46,10.80
2014,05,27,09,47,10.90
2014,05,27,09,48,10.90
2014,05,27,09,49,10.90
2014,05,27,09,50,10.90
2014,05,27,09,51,10.90
2014,05,27,09,52,10.90
2014,05,27,09,53,10.90
2014,05,27,09,54,10.90
2014,05,27,09,55,11.00
2014,05,27,09,56,11.00
2014,05,27,09,57,11.00
2014,05,27,09,58,11.00
2014,05,27,09,59,11.00
2014,05,27,10,00,11.00
2014,05,27,10,01,11.10
2014,05,27,10,02,11.10
2014,05,27,10,03,11.10
2014,05,27,10,04,11.10
2014,05,27,10,05,11.10
2014,05,27,10,06,11.10
2014,05,27,10,07,11.10
2014,05,27,10,08,11.20
2014,05,27,10,09,11.20
2014,05,27,10,10,11.20
2014,05,27,10,11,11.20
2014,05,27,10,12,11.20
2014,05,27,10,13,11.20
2014,05,27,10,14,11.20
2014,05,27,10,15,11.30
2014,05,27,10,16,11.30
2014,05,27,10,17,11.40
2014,05,27,10,18,11.40
2014,05,27,10,19,11.40
2014,05,27,10,20,11.40
2014,05,27,10,21,11.50
2014,05,27,10,22,11.50
2014,05,27,10,23,11.50
2014,05,27,10,24,11.50
2014,05,27,10,25,11.50
2014,05,27,10,26,11.50
2014,05,27,10,27,11.50
2014,05,27,10,28,11.50
2014,05,27,10,29,11.40
2014,05,27,10,30,11.40
2014,05,27,10,31,11.40
2014,05,27,10,32,11.40
2014,05,27,10,33,11.50
2014,05,27,10,34,11.60
2014,05,27,10,35,11.60
2014,05,27,10,36,11.60
2014,05,27,10,37,11.60
2014,05,27,10,38,11.60
2014,05,27,10,39,11.60
2014,05,27,10,40,11.60
2014,05,27,10,41,11.60
2014,05,27,10,42,11.60
2014,05,27,10,43,11.70
2014,05,27,10,44,11.70
2014,05,27,10,45,11.70
2014,05,27,10,46,11.70
2014,05,27,10,47,11.70
2014,05,27,10,48,11.70
2014,05,27,10,49,11.80
2014,05,27,10,50,11.80
2014,05,27,10,51,11.80
2014,05,27,10,52,11.80
2014,05,27,10,53,11.90
2014,05,27,10,54,12.00
2014,05,27,10,55,12.00
2014,05,27,10,56,12.00
2014,05,27,10,57,12.00
2014,05,27,10,58,12.00
2014,05,27,10,59,12.00
2014,05,27,11,00,12.10
2014,05,27,11,01,12.20
2014,05,27,11,02,12.30
2014,05,27,11,03,12.40
2014,05,27,11,04,12.40
2014,05,27,11,05,12.50
2014,05,27,11,06,12.60
2014,05,27,11,07,12.80
2014,05,27,11,08,12.90
2014,05,27,11,09,12.80
2014,05,27,11,10,12.80
2014,05,27,11,11,12.90
2014,05,27,11,12,12.90
2014,05,27,11,13,12.80
2014,05,27,11,14,12.80
2014,05,27,11,15,12.80
2014,05,27,11,16,12.80
2014,05,27,11,17,12.90
2014,05,27,11,18,12.90
2014,05,27,11,19,13.00
2014,05,27,11,20,13.10
2014,05,27,11,21,13.20
2014,05,27,11,22,13.20
2014,05,27,11,23,13.20
2014,05,27,11,24,13.10
2014,05,27,11,25,13.20
2014,05,27,11,26,13.20
2014,05,27,11,27,13.20
2014,05,27,11,28,13.20
2014,05,27,11,29,13.30
2014,05,27,11,30,13.30
2014,05,27,11,31,13.30
2014,05,27,11,32,13.40
2014,05,27,11,33,13.50
2014,05,27,11,34,13.50
2014,05,27,11,35,13.50
2014,05,27,11,36,13.60
2014,05,27,11,37,13.60
2014,05,27,11,38,13.60
2014,05,27,11,39,13.60
2014,05,27,11,40,13.70
2014,05,27,11,41,13.70
2014,05,27,11,42,13.70
2014,05,27,11,43,13.70
2014,05,27,11,44,13.70
2014,05,27,11,45,13.80
2014,05,27,11,46,13.80
2014,05,27,11,47,13.80
2014,05,27,11,48,13.80
2014,05,27,11,49,13.80
2014,05,27,11,50,13.80
2014,05,27,11,51,13.80
2014,05,27,11,52,13.80
2014,05,27,11,53,13.90
2014,05,27,11,54,13.90
2014,05,27,11,55,14.00
2014,05,27,11,56,14.10
2014,05,27,11,57,14.20
2014,05,27,11,58,14.30
2014,05,27,11,59,14.30
2014,05,27,12,00,14.40
2014,05,27,12,01,14.40
2014,05,27,12,02,14.50
2014,05,27,12,03,14.50
2014,05,27,12,04,14.50
2014,05,27,12,05,14.60
2014,05,27,12,06,14.70
2014,05,27,12,07,14.70
2014,05,27,12,08,14.80
2014,05,27,12,09,14.90
2014,05,27,12,10,14.90
2014,05,27,12,11,14.90
2014,05,27,12,12,15.00
2014,05,27,12,13,15.00
2014,05,27,12,14,15.10
2014,05,27,12,15,15.30
2014,05,27,12,16,15.40
2014,05,27,12,17,15.60
2014,05,27,12,18,15.70
2014,05,27,12,19,15.80
2014,05,27,12,20,15.80
2014,05,27,12,21,15.90
2014,05,27,12,22,16.10
2014,05,27,12,23,16.20
2014,05,27,12,24,16.20
2014,05,27,12,25,16.20
2014,05,27,12,26,16.20
2014,05,27,12,27,16.20
2014,05,27,12,28,16.30
2014,05,27,12,29,16.30
2014,05,27,12,30,16.30
2014,05,27,12,31,16.30
2014,05,27,12,32,16.30
2014,05,27,12,33,16.20
2014,05,27,12,34,16.30
2014,05,27,12,35,16.40
2014,05,27,12,36,16.50
2014,05,27,12,37,16.60
2014,05,27,12,38,16.50
2014,05,27,12,39,16.30
2014,05,27,12,40,16.20
2014,05,27,12,41,16.00
2014,05,27,12,42,15.80
2014,05,27,12,43,15.70
2014,05,27,12,44,15.70
2014,05,27,12,45,15.70
2014,05,27,12,46,15.60
2014,05,27,12,47,15.50
2014,05,27,12,48,15.40
2014,05,27,12,49,15.40
2014,05,27,12,50,15.40
2014,05,27,12,51,15.60
2014,05,27,12,52,15.70
2014,05,27,12,53,15.90
2014,05,27,12,54,15.90
2014,05,27,12,55,15.90
2014,05,27,12,56,16.00
2014,05,27,12,57,16.00
2014,05,27,12,58,16.10
2014,05,27,12,59,16.10
2014,05,27,13,00,16.20
2014,05,27,13,01,16.20
2014,05,27,13,02,16.20
2014,05,27,13,03,16.10
2014,05,27,13,04,15.90
2014,05,27,13,05,15.60
2014,05,27,13,06,15.30
2014,05,27,13,07,15.00
2014,05,27,13,08,14.80
2014,05,27,13,09,14.40
2014,05,27,13,10,14.10
2014,05,27,13,11,13.80
2014,05,27,13,12,13.70
2014,05,27,13,13,13.60
2014,05,27,13,14,13.50
2014,05,27,13,15,13.40
2014,05,27,13,16,13.40
2014,05,27,13,17,13.50
2014,05,27,13,18,13.40
2014,05,27,13,19,13.40
2014,05,27,13,20,13.40
2014,05,27,13,21,13.40
2014,05,27,13,22,13.30
2014,05,27,13,23,13.40
2014,05,27,13,24,13.40
2014,05,27,13,25,13.40
2014,05,27,13,26,13.50
2014,05,27,13,27,13.60
2014,05,27,13,28,13.80
2014,05,27,13,29,13.80
2014,05,27,13,30,14.00
2014,05,27,13,31,14.20
2014,05,27,13,32,14.30
2014,05,27,13,33,14.40
2014,05,27,13,34,14.60
2014,05,27,13,35,14.70
2014,05,27,13,36,14.90
2014,05,27,13,37,15.00
2014,05,27,13,38,15.20
2014,05,27,13,39,15.30
2014,05,27,13,40,15.40
2014,05,27,13,41,15.50
2014,05,27,13,42,15.60
2014,05,27,13,43,15.70
2014,05,27,13,44,15.80
2014,05,27,13,45,15.80
2014,05,27,13,46,15.90
2014,05,27,13,47,16.00
2014,05,27,13,48,16.00
2014,05,27,13,49,16.10
2014,05,27,13,50,16.20
2014,05,27,13,51,16.20
2014,05,27,13,52,16.30
2014,05,27,13,53,16.30
2014,05,27,13,54,16.30
2014,05,27,13,55,16.40
2014,05,27,13,56,16.50
2014,05,27,13,57,16.60
2014,05,27,13,58,16.60
2014,05,27,13,59,16.60
2014,05,27,14,00,16.60
2014,05,27,14,01,16.60
2014,05,27,14,02,16.60
2014,05,27,14,03,16.60
2014,05,27,14,04,16.70
2014,05,27,14,05,16.70
2014,05,27,14,06,16.70
2014,05,27,14,07,16.80
2014,05,27,14,08,16.80
2014,05,27,14,09,16.90
2014,05,27,14,10,16.90
2014,05,27,14,11,17.00
2014,05,27,14,12,17.00
2014,05,27,14,13,17.10
2014,05,27,14,14,17.10
2014,05,27,14,15,17.00
2014,05,27,14,16,17.10
2014,05,27,14,17,17.10
2014,05,27,14,18,17.20
2014,05,27,14,19,17.20
2014,05,27,14,20,17.20
2014,05,27,14,21,17.20
2014,05,27,14,22,17.30
2014,05,27,14,23,17.30
2014,05,27,14,24,17.40
2014,05,27,14,25,17.40
2014,05,27,14,26,17.50
2014,05,27,14,27,17.60
2014,05,27,14,28,17.70
2014,05,27,14,29,17.70
2014,05,27,14,30,17.80
2014,05,27,14,31,17.80
2014,05,27,14,32,17.80
2014,05,27,14,33,17.80
2014,05,27,14,34,17.80
2014,05,27,14,35,17.80
2014,05,27,14,36,17.80
2014,05,27,14,37,17.70
2014,05,27,14,38,17.60
2014,05,27,14,39,17.60
2014,05,27,14,40,17.50
2014,05,27,14,41,17.50
2014,05,27,14,42,17.50
2014,05,27,14,43,17.50
2014,05,27,14,44,17.50
2014,05,27,14,45,17.40
2014,05,27,14,46,17.30
2014,05,27,14,47,17.30
2014,05,27,14,48,17.30
2014,05,27,14,49,17.20
2014,05,27,14,50,17.20
2014,05,27,14,51,17.20
2014,05,27,14,52,17.20
2014,05,27,14,53,17.20
2014,05,27,14,54,17.20
2014,05,27,14,55,17.30
2014,05,27,14,56,17.30
2014,05,27,14,57,17.30
2014,05,27,14,58,17.40
2014,05,27,14,59,17.50
2014,05,27,15,00,17.60
2014,05,27,15,01,17.60
2014,05,27,15,02,17.60
2014,05,27,15,03,17.60
2014,05,27,15,04,17.60
2014,05,27,15,05,17.70
2014,05,27,15,06,17.70
2014,05,27,15,07,17.70
2014,05,27,15,08,17.70
2014,05,27,15,09,17.70
2014,05,27,15,10,17.70
2014,05,27,15,11,17.80
2014,05,27,15,12,17.90
2014,05,27,15,13,18.00
2014,05,27,15,14,18.20
2014,05,27,15,15,18.30
2014,05,27,15,16,18.50
2014,05,27,15,17,18.60
2014,05,27,15,18,18.50
2014,05,27,15,19,18.30
2014,05,27,15,20,18.20
2014,05,27,15,21,18.10
2014,05,27,15,22,18.10
2014,05,27,15,23,18.20
2014,05,27,15,24,18.30
2014,05,27,15,25,18.30
2014,05,27,15,26,18.30
2014,05,27,15,27,18.20
2014,05,27,15,28,18.10
2014,05,27,15,29,18.00
2014,05,27,15,30,17.90
2014,05,27,15,31,17.90
2014,05,27,15,32,17.80
2014,05,27,15,33,17.80
2014,05,27,15,34,17.80
2014,05,27,15,35,17.80
2014,05,27,15,36,17.80
2014,05,27,15,37,17.80
2014,05,27,15,38,17.80
2014,05,27,15,39,17.80
2014,05,27,15,40,17.80
2014,05,27,15,41,17.90
2014,05,27,15,42,17.90
2014,05,27,15,43,17.80
2014,05,27,15,44,17.70
2014,05,27,15,45,17.50
2014,05,27,15,46,17.30
2014,05,27,15,47,17.00
2014,05,27,15,48,16.90
2014,05,27,15,49,16.90
2014,05,27,15,50,16.80
2014,05,27,15,51,16.70
2014,05,27,15,52,16.60
2014,05,27,15,53,16.50
2014,05,27,15,54,16.30
2014,05,27,15,55,16.20
2014,05,27,15,56,16.00
2014,05,27,15,57,15.80
2014,05,27,15,58,15.70
2014,05,27,15,59,15.60
2014,05,27,16,00,15.40
2014,05,27,16,01,15.20
2014,05,27,16,02,15.10
2014,05,27,16,03,15.00
2014,05,27,16,04,14.80
2014,05,27,16,05,14.60
2014,05,27,16,06,14.50
2014,05,27,16,07,14.30
2014,05,27,16,08,14.20
2014,05,27,16,09,14.00
2014,05,27,16,10,13.90
2014,05,27,16,11,13.80
2014,05,27,16,12,13.80
2014,05,27,16,13,13.80
2014,05,27,16,14,13.70
2014,05,27,16,15,13.70
2014,05,27,16,16,13.60
2014,05,27,16,17,13.60
2014,05,27,16,18,13.60
2014,05,27,16,19,13.50
2014,05,27,16,20,13.60
2014,05,27,16,21,13.60
2014,05,27,16,22,13.50
2014,05,27,16,23,13.50
2014,05,27,16,24,13.60
2014,05,27,16,25,13.60
2014,05,27,16,26,13.50
2014,05,27,16,27,13.50
2014,05,27,16,28,13.40
2014,05,27,16,29,13.40
2014,05,27,16,30,13.50
2014,05,27,16,31,13.50
2014,05,27,16,32,13.50
2014,05,27,16,33,13.50
2014,05,27,16,34,13.60
2014,05,27,16,35,13.70
2014,05,27,16,36,13.70
2014,05,27,16,37,13.80
2014,05,27,16,38,13.80
2014,05,27,16,39,13.90
2014,05,27,16,40,14.00
2014,05,27,16,41,14.10
2014,05,27,16,42,14.20
2014,05,27,16,43,14.30
2014,05,27,16,44,14.40
2014,05,27,16,45,14.50
2014,05,27,16,46,14.50
2014,05,27,16,47,14.60
2014,05,27,16,48,14.70
2014,05,27,16,49,14.80
2014,05,27,16,50,14.80
2014,05,27,16,51,14.90
2014,05,27,16,52,15.00
2014,05,27,16,53,15.00
2014,05,27,16,54,15.10
2014,05,27,16,55,15.20
2014,05,27,16,56,15.30
2014,05,27,16,57,15.30
2014,05,27,16,58,15.40
2014,05,27,16,59,15.50
2014,05,27,17,00,15.70
2014,05,27,17,01,15.80
2014,05,27,17,02,15.90
2014,05,27,17,03,16.00
2014,05,27,17,04,16.00
2014,05,27,17,05,16.00
2014,05,27,17,06,16.00
2014,05,27,17,07,16.00
2014,05,27,17,08,16.00
2014,05,27,17,09,16.00
2014,05,27,17,10,16.10
2014,05,27,17,11,16.10
2014,05,27,17,12,16.10
2014,05,27,17,13,16.20
2014,05,27,17,14,16.20
2014,05,27,17,15,16.30
2014,05,27,17,16,16.30
2014,05,27,17,17,16.40
2014,05,27,17,18,16.30
2014,05,27,17,19,16.30
2014,05,27,17,20,16.30
2014,05,27,17,21,16.30
2014,05,27,17,22,16.30
2014,05,27,17,23,16.20
2014,05,27,17,24,16.20
2014,05,27,17,25,16.20
2014,05,27,17,26,16.20
2014,05,27,17,27,16.20
2014,05,27,17,28,16.20
2014,05,27,17,29,16.20
2014,05,27,17,30,16.20
2014,05,27,17,31,16.10
2014,05,27,17,32,16.10
2014,05,27,17,33,16.20
2014,05,27,17,34,16.20
2014,05,27,17,35,16.30
2014,05,27,17,36,16.40
2014,05,27,17,37,16.50
2014,05,27,17,38,16.50
2014,05,27,17,39,16.50
2014,05,27,17,40,16.50
2014,05,27,17,41,16.60
2014,05,27,17,42,16.60
2014,05,27,17,43,16.50
2014,05,27,17,44,16.50
2014,05,27,17,45,16.40